Погода в Ларьяке

Погода в Ларьяке : погода сейчас, прогноз погоды и архив. Всё, что Вы хотите узнать о погоде в Ларьяке!

Хотите узнать прогноз погоды в Ларьяке? Тогда Вам сюда: Погода в Ларьяке

Поиск расширенной информации на нашем сайте:

Другие новости

Новости СМИ2

Главная страница сайта

Новости сайта

03.07.2017

Напоминаем, что на нашем специализированном сайте Метеоцентр.Азия вы можете получить высокодетализированные автоматические прогнозы погоды по пунктам России, СНГ и мира в авиационном формате (включающие направление и скорость ветра, видимость, явления погоды, количество и форму облачности, нижнюю и верхнюю границу облачности).


Погода в Ларьяке - сегодня

Время (UTC), дата Ветер
(°,м/с) 
Видим.   Явления Облачность Т
(°С)
Тd
(°С)
f(%) Тe
(°С)
Pmin
(гПа)
dP
(гПа)
Po
(мм)
O2
(г/м3)
Тmin Tmax R s Состояние
почвы
03 21.09.17 120 (ЮВ) 2000 м  дымка{туман}  6/0 средняя, верхняя 
[Ac As|Ci fib]
+4.8 +3.9 94 +6  1013.5  -0.5  755  298  +1.5         
06 21.09.17 360 (С) 20000 м  {туман}  10/8 600 м кучево-дожд., средняя, верхняя 
[Cb cap|As trans|Ci fib]
+7.8 +3.6 75 +9  1012.6  -0.8  754  295           
09 21.09.17 320 (СЗ) 20000 м    10/10 600 м кучево-дожд. 
[Cb cap]
+7.2 +2.9 74 +6  1012.3  -0.4  754  296           
12 21.09.17 310 (СЗ) 20000 м    10/9 600 м кучево-дожд., средняя 
[Cb cap|As op]
+6.2 +2.9 79 +5  1012.7  0.4  754  297           
15 21.09.17 310 (СЗ) 5{11}  20000 м    10/5 600 м кучево-дожд., средняя 
[Cb cap|As op]
+3.5 +0.3 80 +1  1012.9  0.2  755  300    +8.4       
18 21.09.17 300 (СЗ) 20000 м    10/8 600 м кучево-дожд., средняя 
[Cb cap|As op]
+1.9 -0.9 82 1012.4  -0.6  754  302           
21 21.09.17 310 (СЗ) 20000 м    10/10 600 м кучево-дожд. 
[Cb cap]
+2 -1 80 +1  1011.8  -0.6  754  302           
00 22.09.17 320 (СЗ) 20000 м    10/3 600 м средняя 
[Sc|As trans]
+1.1 -1.3 84 1012  0.2  754  303           
03 22.09.17 320 (СЗ) 10 км  слаб. ливневой снег  10/9 600 м кучево-дожд., средняя 
[Cb cap|As op]
+1.5 -0.7 85 1012.7  0.7  754  302  +1.1         
06 22.09.17 310 (СЗ) 10 км  слаб. ливневой дождь со снегом  10/10 600 м кучево-дожд. 
[Cb cap]
+0.8 -0.5 91 -2  1013.8  1.1  755  303  +0.7         
09 22.09.17 330 (СЗ) 4000 м  слаб. ливневой дождь со снегом  10/10 600 м кучево-дожд. 
[Cb cap]
+0.5 -1.2 88 -1  1015.3  1.5  756  304           
12 22.09.17 340 (С) 10 км  слаб. снег{ливн. осадки}  10/8 600 м средняя 
[Sc|As op]
+0.2 -3 79 -2  1017.5  2.1  758  305           
15 22.09.17 320 (СЗ) 20000 м  {снег} [диам. гололёда 3 мм]  10/0 средняя 
[As op]
+0.6 -4 71 -1  1018.1  0.7  758  305    +1.5     
18 22.09.17 330 (СЗ) 20000 м  {снег} [диам. гололёда 3 мм]  10/0 средняя 
[As op]
+0.6 -3.4 75 -1  1018.2  758  305           
21 22.09.17 340 (С) 20000 м    10/0 средняя 
[As op]
+0.7 -3 76 1018.4  0.2  758  305           
00 23.09.17 340 (С) 20000 м    10/3 600 м средняя 
[Sc|Ac As]
+0.4 -3.7 74 -1  1019.1  0.7  759  306           
03 23.09.17 340 (С) 20000 м    10/6 600 м средняя 
[Sc|As op]
+0.6 -3.7 73 -2  1019.8  0.7  760  306  +0.4         
06 23.09.17 340 (С) 20000 м  {ливн. осадки}  10/8 600 м кучево-дожд., средняя 
[Cb cap|As op]
+2.5 -3.3 66 +1  1020.1  0.3  760  304           
09 23.09.17 340 (С) 20000 м    8/5 600 м средняя 
[Sc diur, vesp|Ac As]
+4.2 -2.8 60 +4  1020.9  0.9  760  302           
12 23.09.17 330 (СЗ) 20000 м    8/4 600 м средняя 
[Sc diur, vesp|Ac As]
+4.3 -2.8 60 +4  1022.2  1.3  761  302           
15 23.09.17 330 (СЗ) 20000 м    3/0 средняя 
[As trans]
+1.8 -3.6 67 +1  1023.9  1.6  763  306    +5.4       
18 23.09.17 330 (СЗ) 20000 м    5/0 средняя, верхняя 
[As trans|Ci fib]
+0.4 -3.9 73 1025.1  1.1  764  308           
21 23.09.17 320 (СЗ) 20000 м    3/0 верхняя 
[Ci fib]
-1.5 -4.5 80 -2  1026.1  0.9  764  310           
00 24.09.17 310 (СЗ) 20000 м    1/0 верхняя 
[Ci fib]
-2.4 -4.7 84 -3  1027.5  1.4  765  312           
03 24.09.17 330 (СЗ) 20000 м    1/0 верхняя 
[Ci fib]
-0.7 -4.6 75 -2  1029  1.5  766  310  -2.5         
Время (UTC), дата Ветер
(°,м/с) 
Видим.   Явления Облачность Т
(°С)
Тd
(°С)
f(%) Тe
(°С)
Pmin
(гПа)
dP
(гПа)
Po
(мм)
O2
(г/м3)
Тmin Tmax R s Состояние
почвы

Для получения пояснительной информации подведите курсор к названию столбца.

ПОГОДА в Ларьяке - архив

Всё, что Вы хотите узнать о погоде в Ларьяке - удобно и подробно!

Выберите нужную дату (начиная с 1 января 2015* года) и нажмите кнопку "Найти".
Будут отображены архивные сводки погоды по пункту Ларьяк, начиная с указанной даты.


Отображать данные в формате CSV (для использования в таблицах Excel)


Внимание! Наш архив погоды предназначен исключительно для личного некоммерческого использования в познавательных целях. Если Вам необходимы официальные справки о состоянии погоды (для производственных, юридических, коммерческих и т.п. целей), обращайтесь в органы Росгидромета.

*Примечание: данная дата относится к архиву по метеостанциям СССР (Россия, СНГ, Балтия).
Архив по метеостанциям Зарубежной Европы и Азии (кроме Китая) хранится 10 дней, по другим регионам земного шара (Китай, Африка, Америка, Австралия, Океания) - 1 день.

Ларьяк - район местоположения метеостанции


Название, широта, долгота, высота метеостанции:
Ларьяк 61.1°ш. 80.3°д. 55 м над ур. моря [Российская Федерация]

Дополнительная информация

В oтличие oт бoльшинства пoгoдных сайтoв мы публикуем пoдрoбную метеoинфoрмацию в детальнoм прoфессиoнальнoм фoрмате.

Характеристики температуры и влажнoсти вoздуха измеряются на высoте 2 м в тени вдали oт зданий и деревьев.
Скoрoсть ветра измеряется на высoте 10 м (на урoвне рoста челoвека скoрoсть ветра ниже в 1.5-2 раза). Если метеoстанция нахoдится в гoрoде или в лесу, тo скoрoсть ветра занижена на 2-4 м/с пo сравнению с oткрытым местoм. Скoрoсть ветра над акватoриями крупных рек и oзёр, а также на вершинах хoлмoв на 2-5 м/с выше, чем в oбычных услoвиях.
Атмoсфернoе давление в разных тoчках местнoсти мoжет значительнo oтличаться oт давления на метеoстанции, в зависимoсти oт услoвий рельефа (при пoдъёме на 10 м давление пoнижается примернo на 1 мм рт.ст.).